,,,PA_Meas_PMT16A,,PR_Meas_QMR101_102,,RH_Meas_QMH101,,SR_Meas_QMS101,,TA_Meas_QMH101,,GenWind,,GenWind,
date,time,status,PA,status,PR,status,RH,status,SR,status,TA,status,DirAvg,status,SpdAvg,
2009-01-02, 00:00:04,VALID,1003.55,VALID,0,VALID,84.2076,VALID,0,VALID,26.5271,VALID,71,VALID,1.28437,
2009-01-02, 00:01:04,VALID,1003.54,VALID,0,VALID,84.1237,VALID,0,VALID,26.5661,VALID,64,VALID,0.555469,
2009-01-02, 00:02:04,VALID,1003.54,VALID,0,VALID,84.0855,VALID,0,VALID,26.5876,VALID,79,VALID,1.18828,
2009-01-02, 00:03:04,VALID,1003.52,VALID,0,VALID,83.994,VALID,0,VALID,26.5855,VALID,73,VALID,0.637109,
2009-01-02, 00:04:04,VALID,1003.51,VALID,0,VALID,83.994,VALID,0,VALID,26.5855,VALID,90,VALID,0.476953,
2009-01-02, 00:05:04,VALID,1003.49,VALID,0,VALID,84.0169,VALID,0,VALID,26.5855,VALID,69,VALID,0.930078,
2009-01-02, 00:06:04,VALID,1003.45,VALID,0,VALID,84.1694,VALID,0,VALID,26.5855,VALID,77,VALID,0.536719,
2009-01-02, 00:07:04,VALID,1003.46,VALID,0,VALID,84.3525,VALID,0,VALID,26.5681,VALID,41,VALID,0.465234,
2009-01-02, 00:08:04,VALID,1003.45,VALID,0,VALID,84.6272,VALID,0,VALID,26.5271,VALID,80,VALID,0.404297,
2009-01-02, 00:09:04,VALID,1003.42,VALID,0,VALID,84.6501,VALID,0,VALID,26.4687,VALID,81,VALID,1.06758,
2009-01-02, 00:10:04,VALID,1003.42,VALID,0,VALID,84.5661,VALID,0,VALID,26.4901,VALID,81,VALID,1.36367,
2009-01-02, 00:11:04,VALID,1003.37,VALID,0,VALID,84.5051,VALID,0,VALID,26.5096,VALID,61,VALID,1.1293,
2009-01-02, 00:12:04,VALID,1003.37,VALID,0,VALID,84.4517,VALID,0,VALID,26.5486,VALID,58,VALID,0.986328,
2009-01-02, 00:13:04,VALID,1003.38,VALID,0,VALID,84.5814,VALID,0,VALID,26.5486,VALID,35,VALID,0.516406,
2009-01-02, 00:14:04,VALID,1003.36,VALID,0,VALID,84.4593,VALID,0,VALID,26.5291,VALID,81,VALID,1.27266,
2009-01-02, 00:15:04,VALID,1003.37,VALID,0,VALID,84.3144,VALID,0,VALID,26.5486,VALID,89,VALID,1.10234,
2009-01-02, 00:16:04,VALID,1003.35,VALID,0,VALID,84.3449,VALID,0,VALID,26.5701,VALID,80,VALID,0.979688,
2009-01-02, 00:17:04,VALID,1003.31,VALID,0,VALID,84.3907,VALID,0,VALID,26.5486,VALID,89,VALID,0.810938,
2009-01-02, 00:18:04,VALID,1003.32,VALID,0,VALID,84.5814,VALID,0,VALID,26.5291,VALID,27,VALID,0.344531,
2009-01-02, 00:19:04,VALID,1003.32,VALID,0,VALID,84.5356,VALID,0,VALID,26.5096,VALID,22,VALID,0.427344,
2009-01-02, 00:20:04,VALID,1003.29,VALID,0,VALID,84.5051,VALID,0,VALID,26.5116,VALID,1,VALID,0.441797,
2009-01-02, 00:21:04,VALID,1003.26,VALID,0,VALID,84.528,VALID,0,VALID,26.4901,VALID,56,VALID,0.345703,
2009-01-02, 00:22:04,VALID,1003.24,VALID,0,VALID,84.7416,VALID,0,VALID,26.4707,VALID,43,VALID,0.44375,
2009-01-02, 00:23:04,VALID,1003.21,VALID,0,VALID,84.8103,VALID,0,VALID,26.4512,VALID,78,VALID,0.570313,
2009-01-02, 00:24:04,VALID,1003.19,VALID,0,VALID,84.6195,VALID,0,VALID,26.4707,VALID,71,VALID,1.3125,
2009-01-02, 00:25:04,VALID,1003.17,VALID,0,VALID,84.5814,VALID,0,VALID,26.4687,VALID,55,VALID,0.716797,
2009-01-02, 00:26:04,VALID,1003.18,VALID,0,VALID,84.7035,VALID,0,VALID,26.4687,VALID,73,VALID,0.477344,
2009-01-02, 00:27:04,VALID,1003.18,VALID,0,VALID,84.7645,VALID,0,VALID,26.4492,VALID,72,VALID,0.773438,
2009-01-02, 00:28:04,VALID,1003.16,VALID,0,VALID,84.8255,VALID,0.100563,VALID,26.4297,VALID,54,VALID,0.695703,
2009-01-02, 00:29:04,VALID,1003.16,VALID,0,VALID,84.8332,VALID,0,VALID,26.4082,VALID,74,VALID,0.442969,
2009-01-02, 00:30:04,VALID,1003.13,VALID,0,VALID,84.9018,VALID,0,VALID,26.4082,VALID,44,VALID,0.390234,
2009-01-02, 00:31:04,VALID,1003.09,VALID,0,VALID,84.9247,VALID,0.100563,VALID,26.4102,VALID,39,VALID,0.590625,
2009-01-02, 00:32:04,VALID,1003.09,VALID,0,VALID,85.0773,VALID,0.100563,VALID,26.3907,VALID,25,VALID,0.652734,
2009-01-02, 00:33:04,VALID,1003.08,VALID,0,VALID,85.1841,VALID,0.100563,VALID,26.3303,VALID,51,VALID,0.308594,
2009-01-02, 00:34:04,VALID,1003.06,VALID,0,VALID,85.4206,VALID,0,VALID,26.3323,VALID,52,VALID,0.366406,
2009-01-02, 00:35:04,VALID,1003.02,VALID,0,VALID,85.5732,VALID,0,VALID,26.2933,VALID,45,VALID,0.390234,
2009-01-02, 00:36:04,VALID,1003,VALID,0,VALID,85.741,VALID,0,VALID,26.2739,VALID,40,VALID,0.405469,
2009-01-02, 00:37:04,VALID,1003,VALID,0,VALID,85.8631,VALID,0,VALID,26.2329,VALID,27,VALID,0.864062,
2009-01-02, 00:38:04,VALID,1003.03,VALID,0,VALID,85.8707,VALID,0.100563,VALID,26.2524,VALID,22,VALID,0.376563,
2009-01-02, 00:39:04,VALID,1003.01,VALID,0,VALID,85.8325,VALID,0,VALID,26.2739,VALID,23,VALID,0.653125,
2009-01-02, 00:40:04,VALID,1003.03,VALID,0,VALID,85.9088,VALID,0,VALID,26.2933,VALID,15,VALID,0.274609,
2009-01-02, 00:41:04,VALID,1003,VALID,0,VALID,85.7715,VALID,0.100563,VALID,26.2524,VALID,48,VALID,0.587891,
2009-01-02, 00:42:04,VALID,1002.99,VALID,0,VALID,85.6952,VALID,0,VALID,26.2933,VALID,54,VALID,0.458984,
2009-01-02, 00:43:04,VALID,1003.02,VALID,0,VALID,85.7639,VALID,0,VALID,26.3323,VALID,41,VALID,0.476563,
2009-01-02, 00:44:04,VALID,1002.98,VALID,0,VALID,85.7715,VALID,0,VALID,26.3323,VALID,40,VALID,0.271875,
2009-01-02, 00:45:04,VALID,1002.99,VALID,0,VALID,85.6189,VALID,0.100563,VALID,26.3498,VALID,86,VALID,0.369141,
2009-01-02, 00:46:04,VALID,1002.98,VALID,0,VALID,85.5732,VALID,0,VALID,26.3498,VALID,28,VALID,0.525781,
2009-01-02, 00:47:04,VALID,1002.94,VALID,0,VALID,85.4053,VALID,0,VALID,26.3907,VALID,38,VALID,0.479688,
2009-01-02, 00:48:04,VALID,1002.95,VALID,0,VALID,85.2756,VALID,0,VALID,26.4102,VALID,27,VALID,0.961328,
2009-01-02, 00:49:04,VALID,1002.93,VALID,0,VALID,85.0086,VALID,0,VALID,26.4492,VALID,85,VALID,1.0918,
2009-01-02, 00:50:04,VALID,1002.93,VALID,0,VALID,84.8942,VALID,0,VALID,26.4861,VALID,52,VALID,0.605469,
2009-01-02, 00:51:04,VALID,1002.91,VALID,0,VALID,84.6577,VALID,0.100563,VALID,26.5056,VALID,68,VALID,0.851563,
2009-01-02, 00:52:04,VALID,1002.86,VALID,0,VALID,84.5738,VALID,0.100563,VALID,26.5251,VALID,79,VALID,0.822266,
2009-01-02, 00:53:04,VALID,1002.86,VALID,0,VALID,84.4746,VALID,0,VALID,26.5855,VALID,50,VALID,0.494531,
2009-01-02, 00:54:04,VALID,1002.86,VALID,0,VALID,84.4059,VALID,0,VALID,26.605,VALID,78,VALID,0.642969,
2009-01-02, 00:55:04,VALID,1002.82,VALID,0,VALID,84.3602,VALID,0,VALID,26.5855,VALID,96,VALID,0.564453,
2009-01-02, 00:56:04,VALID,1002.84,VALID,0,VALID,84.3144,VALID,0,VALID,26.5641,VALID,57,VALID,0.653516,
2009-01-02, 00:57:04,VALID,1002.79,VALID,0,VALID,84.4288,VALID,0,VALID,26.5855,VALID,97,VALID,0.680469,
2009-01-02, 00:58:04,VALID,1002.77,VALID,0,VALID,84.4441,VALID,0,VALID,26.5641,VALID,88,VALID,0.871094,
2009-01-02, 00:59:04,VALID,1002.78,VALID,0,VALID,84.6195,VALID,0.100563,VALID,26.5446,VALID,74,VALID,0.476953,
2009-01-02, 01:00:04,VALID,1002.76,VALID,0,VALID,84.8255,VALID,0,VALID,26.5056,VALID,86,VALID,0.585156,
2009-01-02, 01:01:04,VALID,1002.76,VALID,0,VALID,84.8866,VALID,0,VALID,26.4881,VALID,93,VALID,0.543359,
2009-01-02, 01:02:04,VALID,1002.74,VALID,0,VALID,85.1841,VALID,0,VALID,26.4297,VALID,98,VALID,0.766016,
2009-01-02, 01:03:04,VALID,1002.7,VALID,0,VALID,85.3214,VALID,0.100563,VALID,26.3693,VALID,96,VALID,0.597266,
2009-01-02, 01:04:04,VALID,1002.69,VALID,0,VALID,85.5732,VALID,0,VALID,26.3518,VALID,92,VALID,0.627344,
2009-01-02, 01:05:04,VALID,1002.66,VALID,0,VALID,85.6876,VALID,0,VALID,26.3323,VALID,97,VALID,0.69375,
2009-01-02, 01:06:04,VALID,1002.64,VALID,0,VALID,85.8783,VALID,0,VALID,26.3343,VALID,84,VALID,0.739844,
2009-01-02, 01:07:04,VALID,1002.6,VALID,0,VALID,85.9317,VALID,0,VALID,26.2739,VALID,64,VALID,0.133594,
2009-01-02, 01:08:04,VALID,1002.55,VALID,0,VALID,86.0919,VALID,0,VALID,26.2739,VALID,64,VALID,0.330469,
2009-01-02, 01:09:04,VALID,1002.52,VALID,0,VALID,86.2064,VALID,0,VALID,26.2544,VALID,69,VALID,0.251172,
2009-01-02, 01:10:04,VALID,1002.49,VALID,0,VALID,86.2216,VALID,0,VALID,26.2369,VALID,73,VALID,0.247656,
2009-01-02, 01:11:04,VALID,1002.45,VALID,0,VALID,86.3742,VALID,0,VALID,26.1959,VALID,67,VALID,0.210156,
2009-01-02, 01:12:04,VALID,1002.42,VALID,0,VALID,86.4886,VALID,0,VALID,26.1959,VALID,50,VALID,0.00273437,
2009-01-02, 01:13:04,VALID,1002.38,VALID,0,VALID,86.5878,VALID,0,VALID,26.157,VALID,50,VALID,0.0078125,
2009-01-02, 01:14:04,VALID,1002.38,VALID,0,VALID,86.6946,VALID,0,VALID,26.159,VALID,50,VALID,0.0269531,
2009-01-02, 01:15:04,VALID,1002.34,VALID,0,VALID,86.7709,VALID,0,VALID,26.12,VALID,50,VALID,0.0320312,
2009-01-02, 01:16:04,VALID,1002.34,VALID,0,VALID,86.9158,VALID,0,VALID,26.1005,VALID,48,VALID,0.26875,
2009-01-02, 01:17:04,VALID,1002.34,VALID,0,VALID,86.8014,VALID,0,VALID,26.0616,VALID,27,VALID,0.773047,
2009-01-02, 01:18:04,VALID,1002.27,VALID,0,VALID,86.5268,VALID,0,VALID,26.083,VALID,26,VALID,0.719141,
2009-01-02, 01:19:04,VALID,1002.32,VALID,0,VALID,86.2064,VALID,0,VALID,26.0985,VALID,12,VALID,1.21758,
2009-01-02, 01:20:04,VALID,1002.29,VALID,0,VALID,85.741,VALID,0,VALID,26.1784,VALID,21,VALID,0.990234,
2009-01-02, 01:21:04,VALID,1002.3,VALID,0,VALID,85.3138,VALID,0,VALID,26.2564,VALID,42,VALID,0.638281,
2009-01-02, 01:22:04,VALID,1002.25,VALID,0,VALID,85.0391,VALID,0,VALID,26.2953,VALID,30,VALID,0.280859,
2009-01-02, 01:23:04,VALID,1002.29,VALID,0,VALID,84.8179,VALID,0,VALID,26.3343,VALID,42,VALID,0.158984,
2009-01-02, 01:24:04,VALID,1002.27,VALID,0,VALID,84.6348,VALID,0,VALID,26.3343,VALID,42,VALID,0.330469,
2009-01-02, 01:25:04,VALID,1002.27,VALID,0,VALID,85.062,VALID,0,VALID,26.3343,VALID,295,VALID,0.569922,
2009-01-02, 01:26:04,VALID,1002.31,VALID,0,VALID,85.5808,VALID,0,VALID,26.3148,VALID,272,VALID,0.187109,
2009-01-02, 01:27:04,VALID,1002.3,VALID,0,VALID,86.1377,VALID,0,VALID,26.2174,VALID,249,VALID,0.747266,
2009-01-02, 01:28:04,VALID,1002.31,VALID,0,VALID,86.6946,VALID,0,VALID,26.0401,VALID,248,VALID,0.498437,
2009-01-02, 01:29:04,VALID,1002.27,VALID,0,VALID,87.1752,VALID,0,VALID,25.9642,VALID,248,VALID,0.0464844,
2009-01-02, 01:30:04,VALID,1002.3,VALID,0,VALID,87.6482,VALID,0,VALID,25.8453,VALID,248,VALID,0.0722656,
2009-01-02, 01:31:04,VALID,1002.27,VALID,0,VALID,87.9076,VALID,0,VALID,25.8083,VALID,248,VALID,0,
2009-01-02, 01:32:04,VALID,1002.27,VALID,0,VALID,88.3043,VALID,0,VALID,25.7304,VALID,248,VALID,0,
2009-01-02, 01:33:04,VALID,1002.24,VALID,0,VALID,88.6628,VALID,0,VALID,25.6915,VALID,248,VALID,0,
2009-01-02, 01:34:04,VALID,1002.21,VALID,0,VALID,88.7773,VALID,0,VALID,25.6116,VALID,248,VALID,0,
2009-01-02, 01:35:04,VALID,1002.21,VALID,0,VALID,88.9909,VALID,0,VALID,25.5727,VALID,248,VALID,0,
2009-01-02, 01:36:04,VALID,1002.18,VALID,0,VALID,89.2426,VALID,0,VALID,25.5142,VALID,248,VALID,0,
2009-01-02, 01:37:04,VALID,1002.17,VALID,0,VALID,89.6088,VALID,0,VALID,25.4967,VALID,248,VALID,0.479297,
2009-01-02, 01:38:04,VALID,1002.18,VALID,0,VALID,89.7309,VALID,0,VALID,25.3974,VALID,24,VALID,0.484766,
2009-01-02, 01:39:04,VALID,1002.16,VALID,0,VALID,90.0437,VALID,0,VALID,25.3818,VALID,24,VALID,0.389062,
2009-01-02, 01:40:04,VALID,1002.16,VALID,0,VALID,90.3031,VALID,0,VALID,25.2825,VALID,24,VALID,0,
2009-01-02, 01:41:04,VALID,1002.18,VALID,0,VALID,90.4862,VALID,0,VALID,25.263,VALID,24,VALID,0.00390625,
2009-01-02, 01:42:04,VALID,1002.17,VALID,0,VALID,90.6998,VALID,0,VALID,25.224,VALID,24,VALID,0.233203,
2009-01-02, 01:43:04,VALID,1002.19,VALID,0,VALID,90.8218,VALID,0,VALID,25.1832,VALID,37,VALID,0.445313,
2009-01-02, 01:44:04,VALID,1002.17,VALID,0,VALID,90.9591,VALID,0,VALID,25.1851,VALID,41,VALID,0.423828,
2009-01-02, 01:45:04,VALID,1002.19,VALID,0,VALID,91.1041,VALID,0,VALID,25.1851,VALID,41,VALID,0.2875,
2009-01-02, 01:46:04,VALID,1002.19,VALID,0,VALID,91.1422,VALID,0,VALID,25.1656,VALID,41,VALID,0.332422,
2009-01-02, 01:47:04,VALID,1002.17,VALID,0,VALID,91.2338,VALID,0,VALID,25.1267,VALID,41,VALID,0.368359,
2009-01-02, 01:48:04,VALID,1002.21,VALID,0,VALID,91.2948,VALID,0,VALID,25.1267,VALID,26,VALID,0.655078,
2009-01-02, 01:49:04,VALID,1002.19,VALID,0,VALID,91.4016,VALID,0,VALID,25.1072,VALID,26,VALID,0.0722656,
2009-01-02, 01:50:04,VALID,1002.2,VALID,0,VALID,91.4321,VALID,0,VALID,25.0877,VALID,30,VALID,0.415234,
2009-01-02, 01:51:04,VALID,1002.19,VALID,0,VALID,91.4245,VALID,0,VALID,25.0858,VALID,64,VALID,0.190234,
2009-01-02, 01:52:04,VALID,1002.19,VALID,0,VALID,91.3711,VALID,0,VALID,25.1461,VALID,33,VALID,0.360938,
2009-01-02, 01:53:04,VALID,1002.18,VALID,0,VALID,91.2872,VALID,0,VALID,25.1656,VALID,63,VALID,0.357422,
2009-01-02, 01:54:04,VALID,1002.21,VALID,0,VALID,91.1575,VALID,0,VALID,25.1637,VALID,85,VALID,0.808984,
2009-01-02, 01:55:04,VALID,1002.18,VALID,0,VALID,91.0888,VALID,0,VALID,25.2221,VALID,86,VALID,0.414453,
2009-01-02, 01:56:04,VALID,1002.18,VALID,0,VALID,90.7837,VALID,0,VALID,25.2786,VALID,55,VALID,0.473437,
2009-01-02, 01:57:04,VALID,1002.17,VALID,0,VALID,90.4327,VALID,0,VALID,25.376,VALID,74,VALID,0.573047,
2009-01-02, 01:58:04,VALID,1002.18,VALID,0,VALID,90.0971,VALID,0,VALID,25.4734,VALID,93,VALID,0.604688,
2009-01-02, 01:59:04,VALID,1002.16,VALID,0,VALID,89.6699,VALID,0,VALID,25.5318,VALID,92,VALID,0.589063,
2009-01-02, 02:00:04,VALID,1002.13,VALID,0,VALID,89.4181,VALID,0,VALID,25.5921,VALID,91,VALID,0.330078,
2009-01-02, 02:01:04,VALID,1002.13,VALID,0,VALID,89.0977,VALID,0,VALID,25.6311,VALID,65,VALID,0.434375,
2009-01-02, 02:02:04,VALID,1002.15,VALID,0,VALID,88.8917,VALID,0.100563,VALID,25.6681,VALID,65,VALID,0.398438,
2009-01-02, 02:03:04,VALID,1002.12,VALID,0,VALID,88.4416,VALID,0.100563,VALID,25.7285,VALID,78,VALID,0.830078,
2009-01-02, 02:04:04,VALID,1002.13,VALID,0,VALID,88.0678,VALID,0,VALID,25.8044,VALID,51,VALID,0.293359,
2009-01-02, 02:05:04,VALID,1002.12,VALID,0,VALID,87.5719,VALID,0,VALID,25.8629,VALID,79,VALID,0.730859,
2009-01-02, 02:06:04,VALID,1002.12,VALID,0,VALID,87.2362,VALID,0.100563,VALID,25.9427,VALID,32,VALID,0.660156,
2009-01-02, 02:07:04,VALID,1002.1,VALID,0,VALID,86.9616,VALID,0,VALID,25.9602,VALID,13,VALID,0.448438,
2009-01-02, 02:08:04,VALID,1002.1,VALID,0,VALID,86.5573,VALID,0,VALID,26.0187,VALID,13,VALID,0.413281,
2009-01-02, 02:09:04,VALID,1002.08,VALID,0,VALID,86.3742,VALID,0.100563,VALID,26.0596,VALID,55,VALID,0.524219,
2009-01-02, 02:10:04,VALID,1002.05,VALID,0,VALID,86.0385,VALID,0,VALID,26.0596,VALID,34,VALID,0.803516,
2009-01-02, 02:11:04,VALID,1002.03,VALID,0,VALID,85.9775,VALID,0,VALID,26.1395,VALID,34,VALID,0.461719,
2009-01-02, 02:12:04,VALID,1002.03,VALID,0,VALID,85.5579,VALID,0,VALID,26.1784,VALID,39,VALID,0.413672,
2009-01-02, 02:13:04,VALID,1002.03,VALID,0,VALID,85.7181,VALID,0,VALID,26.1765,VALID,38,VALID,0.285156,
2009-01-02, 02:14:04,VALID,1001.97,VALID,0,VALID,85.4969,VALID,0,VALID,26.1959,VALID,8,VALID,0.473047,
2009-01-02, 02:15:04,VALID,1001.98,VALID,0,VALID,85.6418,VALID,0,VALID,26.1959,VALID,25,VALID,0.315234,
2009-01-02, 02:16:04,VALID,1001.94,VALID,0,VALID,86.1911,VALID,0,VALID,26.1959,VALID,23,VALID,0.458984,
2009-01-02, 02:17:04,VALID,1001.97,VALID,0,VALID,85.5426,VALID,0,VALID,26.1784,VALID,39,VALID,0.558984,
2009-01-02, 02:18:04,VALID,1001.93,VALID,0,VALID,85.4206,VALID,0,VALID,26.1959,VALID,34,VALID,0.408984,
2009-01-02, 02:19:04,VALID,1001.95,VALID,0,VALID,86.1911,VALID,0,VALID,26.1959,VALID,34,VALID,0.604297,
2009-01-02, 02:20:04,VALID,1001.95,VALID,0,VALID,86.1224,VALID,0,VALID,26.1395,VALID,29,VALID,0.660937,
2009-01-02, 02:21:04,VALID,1001.97,VALID,0,VALID,86.0461,VALID,0,VALID,26.159,VALID,28,VALID,0.399609,
2009-01-02, 02:22:04,VALID,1001.95,VALID,0,VALID,86.1606,VALID,0,VALID,26.1375,VALID,28,VALID,0.350781,
2009-01-02, 02:23:04,VALID,1001.99,VALID,0,VALID,86.3742,VALID,0,VALID,26.12,VALID,28,VALID,0.146484,
2009-01-02, 02:24:04,VALID,1001.98,VALID,0,VALID,86.7709,VALID,0,VALID,26.0596,VALID,28,VALID,0.0828125,
2009-01-02, 02:25:04,VALID,1001.98,VALID,0,VALID,86.8777,VALID,0,VALID,26.0206,VALID,28,VALID,0.455078,
2009-01-02, 02:26:04,VALID,1001.96,VALID,0,VALID,87.2744,VALID,0,VALID,25.9817,VALID,28,VALID,0.464844,
2009-01-02, 02:27:04,VALID,1001.97,VALID,0,VALID,87.694,VALID,0,VALID,25.9447,VALID,28,VALID,0.224219,
2009-01-02, 02:28:04,VALID,1001.96,VALID,0,VALID,87.8771,VALID,0,VALID,25.8648,VALID,35,VALID,0.812109,
2009-01-02, 02:29:04,VALID,1001.91,VALID,0,VALID,87.816,VALID,0,VALID,25.8473,VALID,32,VALID,0.573828,
2009-01-02, 02:30:04,VALID,1001.96,VALID,0,VALID,87.8923,VALID,0,VALID,25.8278,VALID,29,VALID,0.816406,
2009-01-02, 02:31:04,VALID,1001.93,VALID,0,VALID,87.961,VALID,0,VALID,25.8259,VALID,20,VALID,0.519531,
2009-01-02, 02:32:04,VALID,1001.91,VALID,0,VALID,87.8771,VALID,0,VALID,25.8453,VALID,22,VALID,0.763672,
2009-01-02, 02:33:04,VALID,1001.88,VALID,0,VALID,87.2744,VALID,0,VALID,25.8668,VALID,349,VALID,1.29766,
2009-01-02, 02:34:04,VALID,1001.91,VALID,0,VALID,86.7938,VALID,0,VALID,26.0031,VALID,23,VALID,1.01406,
2009-01-02, 02:35:04,VALID,1001.89,VALID,0,VALID,86.008,VALID,0,VALID,26.12,VALID,3,VALID,0.725391,
2009-01-02, 02:36:04,VALID,1001.83,VALID,0,VALID,85.6723,VALID,0,VALID,26.1765,VALID,33,VALID,0.998438,
2009-01-02, 02:37:04,VALID,1001.85,VALID,0,VALID,85.207,VALID,0,VALID,26.2759,VALID,29,VALID,1.12773,
2009-01-02, 02:38:04,VALID,1001.81,VALID,0,VALID,84.8942,VALID,0,VALID,26.3128,VALID,19,VALID,0.89375,
2009-01-02, 02:39:04,VALID,1001.84,VALID,0,VALID,84.5433,VALID,0,VALID,26.3323,VALID,29,VALID,1.02148,
2009-01-02, 02:40:04,VALID,1001.77,VALID,0,VALID,84.2381,VALID,0,VALID,26.3907,VALID,22,VALID,1.5957,
2009-01-02, 02:41:04,VALID,1001.76,VALID,0,VALID,84.1618,VALID,0.100563,VALID,26.4082,VALID,23,VALID,1.11641,
2009-01-02, 02:42:04,VALID,1001.76,VALID,0,VALID,83.6278,VALID,0,VALID,26.4881,VALID,19,VALID,1.03516,
2009-01-02, 02:43:04,VALID,1001.71,VALID,0,VALID,83.5591,VALID,0.100563,VALID,26.5251,VALID,21,VALID,0.908203,
2009-01-02, 02:44:04,VALID,1001.68,VALID,0,VALID,83.5286,VALID,0,VALID,26.605,VALID,17,VALID,0.730859,
2009-01-02, 02:45:04,VALID,1001.64,VALID,0,VALID,83.3531,VALID,0.100563,VALID,26.5641,VALID,14,VALID,0.523438,
2009-01-02, 02:46:04,VALID,1001.66,VALID,0,VALID,82.8573,VALID,0,VALID,26.5835,VALID,15,VALID,1.27695,
2009-01-02, 02:47:04,VALID,1001.59,VALID,0,VALID,82.5292,VALID,0,VALID,26.6225,VALID,10,VALID,1.05859,
2009-01-02, 02:48:04,VALID,1001.63,VALID,0,VALID,82.5903,VALID,0,VALID,26.683,VALID,11,VALID,1.02109,
2009-01-02, 02:49:04,VALID,1001.61,VALID,0,VALID,82.5292,VALID,0,VALID,26.7024,VALID,22,VALID,1.01836,
2009-01-02, 02:50:04,VALID,1001.58,VALID,0,VALID,82.4758,VALID,0,VALID,26.6809,VALID,1,VALID,0.849609,
2009-01-02, 02:51:04,VALID,1001.57,VALID,0,VALID,82.2927,VALID,0.100563,VALID,26.7024,VALID,24,VALID,1.22266,
2009-01-02, 02:52:04,VALID,1001.55,VALID,0,VALID,82.1707,VALID,0,VALID,26.7024,VALID,33,VALID,1.69609,
2009-01-02, 02:53:04,VALID,1001.56,VALID,0,VALID,82.2775,VALID,0.100563,VALID,26.7219,VALID,338,VALID,0.899219,
2009-01-02, 02:54:04,VALID,1001.58,VALID,0,VALID,82.6894,VALID,0,VALID,26.7004,VALID,24,VALID,0.693359,
2009-01-02, 02:55:04,VALID,1001.58,VALID,0,VALID,82.7276,VALID,0,VALID,26.6635,VALID,7,VALID,1.35352,
2009-01-02, 02:56:04,VALID,1001.58,VALID,0,VALID,83.0785,VALID,0,VALID,26.6635,VALID,24,VALID,0.429297,
2009-01-02, 02:57:04,VALID,1001.59,VALID,0,VALID,83.2769,VALID,0,VALID,26.6245,VALID,8,VALID,0.591016,
2009-01-02, 02:58:04,VALID,1001.61,VALID,0,VALID,83.4676,VALID,0,VALID,26.5855,VALID,1,VALID,0.529688,
2009-01-02, 02:59:04,VALID,1001.63,VALID,0,VALID,83.7651,VALID,0,VALID,26.5661,VALID,2,VALID,0.478125,
2009-01-02, 03:00:04,VALID,1001.63,VALID,0,VALID,83.8643,VALID,0,VALID,26.5271,VALID,6,VALID,0.68125,
2009-01-02, 03:01:04,VALID,1001.6,VALID,0,VALID,83.9101,VALID,0,VALID,26.5096,VALID,19,VALID,0.659375,
2009-01-02, 03:02:04,VALID,1001.63,VALID,0,VALID,84.2152,VALID,0,VALID,26.5096,VALID,16,VALID,0.626953,
2009-01-02, 03:03:04,VALID,1001.62,VALID,0,VALID,84.0931,VALID,0,VALID,26.5096,VALID,9,VALID,0.85625,
2009-01-02, 03:04:04,VALID,1001.63,VALID,0,VALID,84.1618,VALID,0,VALID,26.4881,VALID,10,VALID,0.739062,
2009-01-02, 03:05:04,VALID,1001.65,VALID,0,VALID,84.3678,VALID,0,VALID,26.5096,VALID,12,VALID,0.469531,
2009-01-02, 03:06:04,VALID,1001.59,VALID,0,VALID,84.2686,VALID,0,VALID,26.4901,VALID,19,VALID,0.873828,
2009-01-02, 03:07:04,VALID,1001.6,VALID,0,VALID,84.116,VALID,0,VALID,26.4901,VALID,343,VALID,1.06172,
2009-01-02, 03:08:04,VALID,1001.6,VALID,0,VALID,84.0703,VALID,0,VALID,26.4901,VALID,29,VALID,1.21563,
2009-01-02, 03:09:04,VALID,1001.61,VALID,0,VALID,84.5433,VALID,0,VALID,26.4881,VALID,17,VALID,0.426562,
2009-01-02, 03:10:04,VALID,1001.6,VALID,0,VALID,84.5814,VALID,0.100563,VALID,26.4687,VALID,8,VALID,0.447266,
2009-01-02, 03:11:04,VALID,1001.6,VALID,0,VALID,84.5967,VALID,0.100563,VALID,26.4472,VALID,353,VALID,0.524609,
2009-01-02, 03:12:04,VALID,1001.62,VALID,0,VALID,84.9094,VALID,0.100563,VALID,26.4297,VALID,352,VALID,0.596094,
2009-01-02, 03:13:04,VALID,1001.65,VALID,0,VALID,85.1459,VALID,0.100563,VALID,26.3693,VALID,352,VALID,0.488281,
2009-01-02, 03:14:04,VALID,1001.68,VALID,0,VALID,85.5732,VALID,0.100563,VALID,26.3323,VALID,352,VALID,0.221875,
2009-01-02, 03:15:04,VALID,1001.71,VALID,0,VALID,86.0004,VALID,0,VALID,26.2933,VALID,350,VALID,0.346875,
2009-01-02, 03:16:04,VALID,1001.71,VALID,0,VALID,86.2292,VALID,0.100563,VALID,26.2134,VALID,353,VALID,0.625781,
2009-01-02, 03:17:04,VALID,1001.7,VALID,0,VALID,86.5725,VALID,0,VALID,26.155,VALID,351,VALID,0.120703,
2009-01-02, 03:18:04,VALID,1001.72,VALID,0,VALID,86.7938,VALID,0.100563,VALID,26.116,VALID,336,VALID,0.0785156,
2009-01-02, 03:19:04,VALID,1001.71,VALID,0,VALID,86.9692,VALID,0.100563,VALID,26.0576,VALID,1,VALID,0.389844,
2009-01-02, 03:20:04,VALID,1001.71,VALID,0,VALID,87.1905,VALID,0.100563,VALID,26.0187,VALID,1,VALID,0.594922,
2009-01-02, 03:21:04,VALID,1001.73,VALID,0,VALID,87.3888,VALID,0.100563,VALID,25.9602,VALID,348,VALID,0.539453,
2009-01-02, 03:22:04,VALID,1001.71,VALID,0,VALID,87.6329,VALID,0,VALID,25.9038,VALID,339,VALID,0.469922,
2009-01-02, 03:23:04,VALID,1001.69,VALID,0,VALID,87.9457,VALID,0.100563,VALID,25.8629,VALID,349,VALID,0.6875,
2009-01-02, 03:24:04,VALID,1001.72,VALID,0,VALID,88.167,VALID,0.100563,VALID,25.8453,VALID,349,VALID,1.04375,
2009-01-02, 03:25:04,VALID,1001.69,VALID,0,VALID,88.2661,VALID,0,VALID,25.8473,VALID,345,VALID,0.845703,
2009-01-02, 03:26:04,VALID,1001.69,VALID,0,VALID,88.2661,VALID,0,VALID,25.8473,VALID,349,VALID,0.694922,
2009-01-02, 03:27:04,VALID,1001.7,VALID,0,VALID,88.2051,VALID,0,VALID,25.8648,VALID,352,VALID,0.732813,
2009-01-02, 03:28:04,VALID,1001.71,VALID,0,VALID,88.3119,VALID,0,VALID,25.9038,VALID,356,VALID,0.486719,
2009-01-02, 03:29:04,VALID,1001.68,VALID,0,VALID,87.9991,VALID,0,VALID,25.9447,VALID,355,VALID,1.09375,
2009-01-02, 03:30:04,VALID,1001.71,VALID,0,VALID,87.8313,VALID,0,VALID,25.9836,VALID,343,VALID,0.835938,
2009-01-02, 03:31:05,VALID,1001.71,VALID,0,VALID,87.7779,VALID,0,VALID,26.0226,VALID,4,VALID,0.727344,
2009-01-02, 03:32:05,VALID,1001.72,VALID,0,VALID,87.755,VALID,0,VALID,26.081,VALID,3,VALID,0.386328,
2009-01-02, 03:33:05,VALID,1001.76,VALID,0,VALID,87.5948,VALID,0,VALID,26.1005,VALID,17,VALID,0.465625,
2009-01-02, 03:34:05,VALID,1001.76,VALID,0,VALID,87.6482,VALID,0,VALID,26.1005,VALID,17,VALID,0.410547,
2009-01-02, 03:35:05,VALID,1001.77,VALID,0,VALID,87.1142,VALID,0,VALID,26.0596,VALID,4,VALID,1.19727,
2009-01-02, 03:36:05,VALID,1001.81,VALID,0,VALID,87.0913,VALID,0,VALID,26.118,VALID,359,VALID,0.465625,
2009-01-02, 03:37:05,VALID,1001.81,VALID,0,VALID,87.1066,VALID,0,VALID,26.1395,VALID,6,VALID,0.608984,
2009-01-02, 03:38:05,VALID,1001.84,VALID,0,VALID,86.7022,VALID,0,VALID,26.1375,VALID,349,VALID,0.650781,
2009-01-02, 03:39:05,VALID,1001.82,VALID,0,VALID,86.7251,VALID,0,VALID,26.157,VALID,15,VALID,1.02305,
2009-01-02, 03:40:05,VALID,1001.86,VALID,0,VALID,86.481,VALID,0,VALID,26.1784,VALID,344,VALID,0.638281,
2009-01-02, 03:41:05,VALID,1001.84,VALID,0,VALID,86.6031,VALID,0,VALID,26.1979,VALID,354,VALID,0.475781,
2009-01-02, 03:42:05,VALID,1001.87,VALID,0,VALID,86.1072,VALID,0,VALID,26.1765,VALID,41,VALID,1.12266,
2009-01-02, 03:43:05,VALID,1001.86,VALID,0,VALID,85.9622,VALID,0,VALID,26.2564,VALID,10,VALID,0.518359,
2009-01-02, 03:44:05,VALID,1001.9,VALID,0,VALID,85.9393,VALID,0,VALID,26.2953,VALID,26,VALID,0.454688,